TimeCDT,TemperatureF,Dew PointF,Humidity,Sea Level PressureIn,VisibilityMPH,Wind Direction,Wind SpeedMPH,Gust SpeedMPH,PrecipitationIn,Events,Conditions,WindDirDegrees,DateUTC
12:16 AM,68.0,66.2,94,30.05,4.0,ENE,4.6,-,N/A,,Scattered Clouds,70,2013-08-29 05:16:00
12:23 AM,69.8,66.2,88,30.05,4.0,ENE,8.1,-,N/A,,Mostly Cloudy,70,2013-08-29 05:23:00
12:52 AM,70.0,68.0,93,30.04,4.0,East,6.9,-,N/A,,Overcast,80,2013-08-29 05:52:00
1:52 AM,71.1,68.0,90,30.04,4.0,East,5.8,-,N/A,,Overcast,80,2013-08-29 06:52:00
2:15 AM,71.6,68.0,88,30.05,5.0,East,4.6,-,N/A,,Overcast,80,2013-08-29 07:15:00
2:52 AM,71.1,68.0,90,30.04,5.0,East,3.5,-,N/A,,Overcast,80,2013-08-29 07:52:00
3:52 AM,71.1,68.0,90,30.04,5.0,Calm,Calm,-,N/A,,Overcast,0,2013-08-29 08:52:00
4:49 AM,71.6,69.8,94,30.06,4.0,Calm,Calm,-,N/A,,Overcast,0,2013-08-29 09:49:00
4:52 AM,71.1,69.1,93,30.04,4.0,Calm,Calm,-,N/A,,Overcast,0,2013-08-29 09:52:00
5:52 AM,71.1,69.1,93,30.05,4.0,East,3.5,-,N/A,,Overcast,90,2013-08-29 10:52:00
6:41 AM,71.6,69.8,94,30.08,2.5,East,3.5,-,N/A,,Overcast,100,2013-08-29 11:41:00
6:52 AM,71.1,69.1,93,30.06,2.5,ESE,4.6,-,N/A,,Overcast,110,2013-08-29 11:52:00
7:14 AM,71.6,69.8,94,30.08,3.0,ESE,4.6,-,N/A,,Overcast,110,2013-08-29 12:14:00
7:27 AM,71.6,69.8,94,30.09,2.5,East,4.6,-,N/A,,Overcast,90,2013-08-29 12:27:00
7:52 AM,72.0,69.1,91,30.08,2.5,ESE,3.5,-,N/A,,Overcast,120,2013-08-29 12:52:00
8:05 AM,73.4,69.8,88,30.09,3.0,ESE,4.6,-,N/A,,Overcast,120,2013-08-29 13:05:00
8:52 AM,73.9,69.1,85,30.09,4.0,SE,4.6,-,N/A,,Haze,140,2013-08-29 13:52:00
9:21 AM,73.4,68.0,83,30.10,4.0,Calm,Calm,-,N/A,,Haze,0,2013-08-29 14:21:00
9:28 AM,75.2,68.0,78,30.10,4.0,Calm,Calm,-,N/A,,Haze,0,2013-08-29 14:28:00
9:34 AM,75.2,69.8,83,30.10,5.0,Calm,Calm,-,N/A,,Haze,0,2013-08-29 14:34:00
9:52 AM,75.9,68.0,76,30.09,5.0,Variable,3.5,-,N/A,,Haze,0,2013-08-29 14:52:00
10:52 AM,79.0,69.1,72,30.09,7.0,Calm,Calm,-,N/A,,Clear,0,2013-08-29 15:52:00
11:52 AM,82.0,69.1,65,30.09,9.0,Calm,Calm,-,N/A,,Partly Cloudy,0,2013-08-29 16:52:00
12:52 PM,84.0,68.0,58,30.07,9.0,Calm,Calm,-,N/A,,Partly Cloudy,0,2013-08-29 17:52:00
1:52 PM,84.9,66.9,55,30.05,8.0,SSE,5.8,-,N/A,,Clear,160,2013-08-29 18:52:00
2:52 PM,87.1,66.9,51,30.03,9.0,South,6.9,-,N/A,,Clear,180,2013-08-29 19:52:00
3:52 PM,88.0,66.0,48,30.01,9.0,Calm,Calm,-,N/A,,Clear,0,2013-08-29 20:52:00
4:52 PM,88.0,66.0,48,30.00,10.0,South,4.6,-,N/A,,Clear,190,2013-08-29 21:52:00
5:52 PM,86.0,68.0,55,29.99,10.0,SW,8.1,-,N/A,,Clear,220,2013-08-29 22:52:00
6:52 PM,82.0,71.1,69,29.99,9.0,WSW,4.6,-,N/A,,Clear,240,2013-08-29 23:52:00
7:52 PM,78.1,70.0,76,29.99,9.0,Calm,Calm,-,N/A,,Clear,0,2013-08-30 00:52:00
8:52 PM,75.0,70.0,84,30.00,9.0,Calm,Calm,-,N/A,,Clear,0,2013-08-30 01:52:00
9:52 PM,73.9,69.1,85,29.99,8.0,SE,3.5,-,N/A,,Clear,140,2013-08-30 02:52:00
10:52 PM,73.0,66.0,79,29.99,9.0,Calm,Calm,-,N/A,,Clear,0,2013-08-30 03:52:00
11:52 PM,71.1,64.0,78,29.99,10.0,Calm,Calm,-,N/A,,Clear,0,2013-08-30 04:52:00